Dewpoint
65 65 63 62 62 62 61 61 61 61 62 63 63 60 63 63 63 65 64 65 65 64 64 64 64 64 64 64 63 61 63 64 66 66 65 64 64 64 63 63 64 64
65 64 63 63 62 62 62 63 61 61 63 63 63 63 62 63 63 64 63 63 63 64 64 64 64 64 64 63 64 63 63 64 65 63 65 64 64 64 63 64 63 64
65 64 64 63 62 62 63 63 63 62 64 63 63 63 63 63 63 63 64 63 63 62 64 64 64 64 63 63 63 62 62 62 62 64 64 62 63 62 64 64 64 64
64 64 63 63 63 62 63 63 63 63 63 63 62 62 62 62 63 63 63 62 61 63 63 64 63 63 59 61 63 62 62 62 62 63 64 63 63 63 63 63 63 63
64 63 64 63 62 62 62 61 61 62 61 63 62 63 61 62 63 61 63 62 60 61 62 63 63 63 61 60 61 61 62 62 62 62 61 62 63 63 63 63 62 62
63 62 63 62 62 61 61 60 59 61 61 62 63 61 62 61 61 59 62 59 59 60 60 61 61 60 60 61 61 61 61 58 59 60 58 59 59 62 60 64 62 62
62 63 63 62 61 61 60 60 59 60 61 62 61 62 61 61 62 58 58 58 57 57 57 60 61 60 62 60 60 60 60 59 57 56 55 58 59 59 58 60 62 62
62 63 62 61 61 61 60 59 60 61 62 60 61 61 60 58 58 59 58 58 55 53 57 57 59 59 60 60 58 58 59 59 59 57 55 56 58 56 59 59 61 59
62 63 62 61 61 60 59 58 60 61 60 61 60 60 59 59 59 59 58 57 54 56 54 57 58 58 60 59 60 58 55 57 59 58 56 58 58 56 55 57 60 61
62 62 61 60 60 60 59 59 60 59 59 60 59 60 57 61 60 56 58 59 55 54 53 55 59 58 59 58 55 56 56 55 56 57 57 57 58 56 53 55 57 58
62 62 61 61 60 60 60 60 60 59 59 58 60 60 58 60 58 59 58 57 57 52 51 53 57 55 57 58 57 57 56 56 54 55 57 56 56 56 58 56 57 57
62 62 61 60 59 60 60 59 59 59 60 60 58 58 59 61 57 60 55 54 52 51 50 51 54 56 55 54 53 56 57 55 55 56 56 55 56 54 55 57 57 56
60 62 62 60 59 60 60 59 58 59 58 57 58 58 58 58 57 59 59 55 51 52 51 55 54 54 56 56 52 54 54 53 57 56 57 55 54 54 54 55 56 55
60 60 61 63 61 60 60 58 58 59 58 56 57 58 57 54 52 55 58 55 55 54 50 55 54 52 51 52 53 54 55 57 56 57 56 55 55 56 56 56 56 55
60 61 62 63 62 59 59 58 57 58 58 57 58 56 56 56 55 53 56 55 52 54 55 54 53 51 48 47 49 54 59 57 56 54 56 55 55 55 55 55 54 56
61 61 61 61 61 59 58 58 58 58 58 56 54 54 57 54 55 54 54 56 53 56 55 54 51 49 45 43 44 48 54 51 58 58 55 56 55 55 55 56 55 55
61 61 60 60 60 60 58 57 57 58 57 55 54 54 55 55 55 55 56 56 55 55 53 52 49 46 41 40 41 43 50 56 58 57 57 54 56 53 55 56 56 56
61 61 60 60 60 56 56 56 57 57 57 57 57 57 56 58 57 56 55 55 54 54 53 51 47 42 39 40 41 41 44 53 54 57 59 58 55 56 55 55 55 55
60 59 58 58 58 58 58 57 58 58 58 58 58 58 58 56 54 54 54 54 53 50 48 47 46 39 39 40 40 41 40 51 53 55 58 57 56 55 54 55 57 58
58 57 56 56 56 55 56 56 57 57 57 57 57 57 57 54 52 51 50 49 48 46 44 43 40 39 37 38 39 39 39 47 57 59 56 55 54 55 55 55 57 56
56 55 54 54 53 54 54 54 55 55 56 56 56 56 55 53 51 49 48 46 45 44 42 41 40 37 36 37 37 39 42 50 59 60 57 55 54 55 56 55 57 58
53 54 53 53 53 53 53 53 52 52 54 55 54 54 54 54 53 50 47 46 45 42 41 40 40 36 36 36 37 37 46 57 58 57 55 55 55 55 56 57 58 58
51 51 51 52 52 52 52 52 51 52 53 54 53 53 53 53 52 51 49 46 43 42 40 40 39 37 36 36 36 37 46 55 55 53 54 57 55 56 58 58 56 57
48 48 49 49 50 49 49 50 51 53 53 54 52 52 51 51 51 50 49 47 45 43 41 40 39 38 36 36 36 38 42 52 51 51 52 52 55 58 58 57 52 51
47 47 47 47 47 48 48 48 48 49 50 51 50 48 47 47 47 46 47 48 48 47 47 42 40 39 36 35 36 38 44 49 47 46 46 47 47 47 51 54 50 46
47 46 46 46 46 47 48 48 49 49 47 47 46 45 45 45 46 46 45 45 44 44 47 46 42 39 38 36 36 37 40 45 45 43 43 43 44 45 46 48 51 47